CEB240 RPME-RPLK

Flight info

Callsign CEB240
Flight time 0h 47m
Altitude 24000
Route TACL1B ROLEX DCT TAC DCT MASBA MASBA1B
Aircraft A20N/M-SDE2E3FGHIRWXY/LB1

Departure

Time 2026-04-24 15:34
Airport Bancasi Airport (RPME)

Arrival

Time 2026-04-24 16:21
Airport Bicol International Airport (RPLK)
Time Latitude Longitude Altitude Speed Heading
2026-04-24 15:20 8.94892 125.48111 51 ft 0 kts 237°
2026-04-24 15:28 8.94896 125.48105 51 ft 0 kts
2026-04-24 15:29 8.94913 125.48129 51 ft 3 kts 56°
2026-04-24 15:30 8.94897 125.48218 52 ft 5 kts 115°
2026-04-24 15:31 8.94900 125.48395 53 ft 7 kts 114°
2026-04-24 15:32 8.94812 125.48602 56 ft 6 kts 95°
2026-04-24 15:33 8.94804 125.48586 55 ft 0 kts 297°
2026-04-24 15:33 8.95444 125.47284 179 ft 155 kts 296°
2026-04-24 15:34 8.96398 125.45319 1491 ft 169 kts 297°
2026-04-24 15:35 8.99302 125.43777 2976 ft 203 kts 29°
2026-04-24 15:35 8.99715 125.44022 3141 ft 208 kts 31°
2026-04-24 15:35 9.04402 125.44756 4531 ft 265 kts
2026-04-24 15:36 9.06282 125.44778 5283 ft 273 kts
2026-04-24 15:36 9.10117 125.44879 7139 ft 273 kts
2026-04-24 15:36 9.11962 125.44946 8276 ft 263 kts
2026-04-24 15:37 9.13722 125.45014 9332 ft 253 kts
2026-04-24 15:37 9.15490 125.45087 10181 ft 253 kts
2026-04-24 15:37 9.16664 125.45139 10685 ft 255 kts
2026-04-24 15:37 9.19062 125.45247 11678 ft 259 kts
2026-04-24 15:38 9.20872 125.45328 12411 ft 262 kts
2026-04-24 15:38 9.22720 125.45242 13041 ft 270 kts 345°
2026-04-24 15:38 9.24474 125.44441 13493 ft 285 kts 330°
2026-04-24 15:38 9.26215 125.43349 13892 ft 302 kts 329°
2026-04-24 15:39 9.28036 125.42192 14236 ft 319 kts 329°
2026-04-24 15:39 9.29996 125.40989 14558 ft 336 kts 330°
2026-04-24 15:39 9.32082 125.39745 14993 ft 349 kts 331°
2026-04-24 15:39 9.34205 125.38500 15681 ft 354 kts 331°
2026-04-24 15:40 9.36365 125.37244 16418 ft 356 kts 332°
2026-04-24 15:40 9.38519 125.35997 17093 ft 360 kts 332°
2026-04-24 15:40 9.40706 125.34738 17756 ft 363 kts 332°
2026-04-24 15:40 9.42935 125.33446 18408 ft 366 kts 332°
2026-04-24 15:41 9.45188 125.32138 19032 ft 370 kts 332°
2026-04-24 15:41 9.47463 125.30821 19629 ft 375 kts 333°
2026-04-24 15:41 9.49749 125.29504 20229 ft 378 kts 333°
2026-04-24 15:41 9.52039 125.28188 20826 ft 382 kts 333°
2026-04-24 15:42 9.54365 125.26852 21387 ft 384 kts 334°
2026-04-24 15:42 9.56711 125.25504 21907 ft 389 kts 334°
2026-04-24 15:42 9.59093 125.24138 22460 ft 393 kts 334°
2026-04-24 15:42 9.61489 125.22763 23017 ft 396 kts 334°
2026-04-24 15:43 9.63905 125.21378 23554 ft 400 kts 334°
2026-04-24 15:43 9.66349 125.19978 23846 ft 402 kts 334°
2026-04-24 15:43 9.68812 125.18565 23875 ft 402 kts 334°
2026-04-24 15:43 9.71253 125.17165 23882 ft 402 kts 334°
2026-04-24 15:44 9.73698 125.15760 23885 ft 402 kts 334°
2026-04-24 15:44 9.76156 125.14348 23892 ft 410 kts 334°
2026-04-24 15:44 9.78687 125.12901 23892 ft 426 kts 334°
2026-04-24 15:44 9.81339 125.11383 23894 ft 442 kts 334°
2026-04-24 15:45 9.84057 125.09824 23893 ft 456 kts 333°
2026-04-24 15:45 9.86890 125.08200 23894 ft 470 kts 333°
2026-04-24 15:45 9.89787 125.06537 23893 ft 482 kts 333°
2026-04-24 15:45 9.92776 125.04819 23892 ft 491 kts 333°
2026-04-24 15:46 9.95761 125.03104 23892 ft 493 kts 333°
2026-04-24 15:46 9.98783 125.01363 23892 ft 494 kts 333°
2026-04-24 15:46 10.01800 124.99626 23889 ft 494 kts 333°
2026-04-24 15:46 10.04787 124.97905 23888 ft 494 kts 333°
2026-04-24 15:47 10.07802 124.96169 23887 ft 494 kts 333°
2026-04-24 15:47 10.10817 124.94433 23887 ft 494 kts 333°
2026-04-24 15:47 10.13799 124.92724 23888 ft 494 kts 333°
2026-04-24 15:47 10.16853 124.90974 23887 ft 494 kts 333°
2026-04-24 15:48 10.19847 124.89257 23887 ft 494 kts 333°
2026-04-24 15:48 10.22847 124.87533 23887 ft 494 kts 333°
2026-04-24 15:48 10.25884 124.85785 23887 ft 494 kts 333°
2026-04-24 15:48 10.28866 124.84068 23888 ft 494 kts 333°
2026-04-24 15:49 10.31888 124.82327 23890 ft 494 kts 333°
2026-04-24 15:49 10.34889 124.80596 23892 ft 494 kts 333°
2026-04-24 15:49 10.37899 124.78861 23894 ft 494 kts 333°
2026-04-24 15:49 10.40886 124.77138 23892 ft 494 kts 333°
2026-04-24 15:50 10.43916 124.75389 23891 ft 494 kts 333°
2026-04-24 15:50 10.46897 124.73668 23889 ft 494 kts 333°
2026-04-24 15:50 10.49918 124.71924 23888 ft 494 kts 333°
2026-04-24 15:50 10.52889 124.70209 23889 ft 494 kts 333°
2026-04-24 15:51 10.55926 124.68455 23888 ft 494 kts 333°
2026-04-24 15:51 10.58944 124.66712 23889 ft 494 kts 333°
2026-04-24 15:51 10.61786 124.65071 23889 ft 494 kts 333°
2026-04-24 15:51 10.64832 124.63311 23889 ft 494 kts 333°
2026-04-24 15:52 10.66849 124.62145 23890 ft 494 kts 333°
2026-04-24 15:52 10.70831 124.59843 23891 ft 494 kts 333°
2026-04-24 15:52 10.73841 124.58102 23892 ft 494 kts 333°
2026-04-24 15:52 10.76813 124.56382 23892 ft 494 kts 333°
2026-04-24 15:53 10.79800 124.54652 23896 ft 494 kts 333°
2026-04-24 15:53 10.82826 124.52901 23901 ft 494 kts 333°
2026-04-24 15:53 10.85811 124.51172 23902 ft 494 kts 333°
2026-04-24 15:53 10.88819 124.49429 23905 ft 494 kts 333°
2026-04-24 15:54 10.91818 124.47694 23906 ft 494 kts 333°
2026-04-24 15:54 10.94811 124.45962 23908 ft 494 kts 333°
2026-04-24 15:54 10.97833 124.44212 23908 ft 494 kts 333°
2026-04-24 15:54 11.00840 124.42470 23908 ft 494 kts 333°
2026-04-24 15:55 11.03830 124.40738 23907 ft 494 kts 333°
2026-04-24 15:55 11.06830 124.38998 23905 ft 494 kts 333°
2026-04-24 15:55 11.09817 124.37267 23902 ft 494 kts 333°
2026-04-24 15:55 11.12830 124.35526 23900 ft 494 kts 333°
2026-04-24 15:56 11.15734 124.33845 23897 ft 494 kts 333°
2026-04-24 15:56 11.18749 124.32088 23896 ft 494 kts 333°
2026-04-24 15:56 11.21747 124.30338 23893 ft 494 kts 333°
2026-04-24 15:56 11.24716 124.28606 23892 ft 494 kts 333°
2026-04-24 15:57 11.27736 124.26846 23891 ft 494 kts 333°
2026-04-24 15:57 11.30723 124.25108 23890 ft 494 kts 333°
2026-04-24 15:57 11.32739 124.23935 23890 ft 494 kts 333°
2026-04-24 15:57 11.36756 124.21599 23889 ft 494 kts 333°
2026-04-24 15:58 11.39761 124.19850 23887 ft 494 kts 333°
2026-04-24 15:58 11.42764 124.18104 23888 ft 494 kts 333°
2026-04-24 15:58 11.45805 124.16334 23889 ft 494 kts 333°
2026-04-24 15:58 11.48817 124.14580 23889 ft 494 kts 333°
2026-04-24 15:59 11.51821 124.12831 23888 ft 494 kts 333°
2026-04-24 15:59 11.54823 124.11083 23888 ft 494 kts 333°
2026-04-24 15:59 11.57778 124.09361 23883 ft 480 kts 333°
2026-04-24 15:59 11.60638 124.07687 23889 ft 458 kts 333°
2026-04-24 16:00 11.63336 124.06109 23725 ft 442 kts 333°
2026-04-24 16:00 11.65987 124.04560 23463 ft 429 kts 333°
2026-04-24 16:00 11.68559 124.03059 23199 ft 417 kts 334°
2026-04-24 16:00 11.71032 124.01616 22938 ft 406 kts 334°
2026-04-24 16:01 11.73470 124.00195 22677 ft 396 kts 334°
2026-04-24 16:01 11.75882 123.98790 22417 ft 393 kts 334°
2026-04-24 16:01 11.78246 123.97414 22159 ft 391 kts 334°
2026-04-24 16:01 11.80615 123.96033 21900 ft 389 kts 334°
2026-04-24 16:02 11.82971 123.94659 21642 ft 388 kts 333°
2026-04-24 16:02 11.85325 123.93287 21382 ft 386 kts 333°
2026-04-24 16:02 11.87676 123.91916 21126 ft 384 kts 333°
2026-04-24 16:02 11.89974 123.90574 20878 ft 382 kts 333°
2026-04-24 16:03 11.92290 123.89220 20604 ft 381 kts 333°
2026-04-24 16:03 11.94602 123.87874 20244 ft 379 kts 333°
2026-04-24 16:03 11.96930 123.86516 19844 ft 377 kts 333°
2026-04-24 16:03 11.99209 123.85184 19436 ft 374 kts 333°
2026-04-24 16:04 12.01442 123.83880 19021 ft 371 kts 332°
2026-04-24 16:04 12.03685 123.82568 18603 ft 368 kts 332°
2026-04-24 16:04 12.05922 123.81258 18181 ft 364 kts 332°
2026-04-24 16:04 12.08129 123.79961 17767 ft 361 kts 332°
2026-04-24 16:05 12.12493 123.77410 16938 ft 356 kts 332°
2026-04-24 16:05 12.14647 123.76155 16528 ft 353 kts 332°
2026-04-24 16:06 12.18899 123.73670 15715 ft 348 kts 332°
2026-04-24 16:06 12.21005 123.72436 15309 ft 346 kts 332°
2026-04-24 16:06 12.25154 123.70003 14508 ft 341 kts 331°
2026-04-24 16:07 12.27221 123.68787 14106 ft 339 kts 331°
2026-04-24 16:07 12.29262 123.67588 13711 ft 337 kts 331°
2026-04-24 16:07 12.33319 123.65205 12917 ft 334 kts 331°
2026-04-24 16:08 12.35325 123.64043 12522 ft 332 kts 334°
2026-04-24 16:08 12.39765 123.62914 11719 ft 326 kts 358°
2026-04-24 16:09 12.44312 123.62748 10937 ft 323 kts 360°
2026-04-24 16:09 12.46548 123.62676 10553 ft 320 kts 359°
2026-04-24 16:09 12.48026 123.62625 10297 ft 318 kts 360°
2026-04-24 16:09 12.50970 123.62518 10038 ft 305 kts 360°
2026-04-24 16:10 12.57027 123.62283 9415 ft 282 kts
2026-04-24 16:11 12.60943 123.62131 8783 ft 279 kts 360°
2026-04-24 16:11 12.62888 123.62054 8470 ft 277 kts 360°
2026-04-24 16:11 12.64807 123.61976 8162 ft 275 kts 360°
2026-04-24 16:12 12.68659 123.61820 7542 ft 272 kts
2026-04-24 16:12 12.70542 123.61743 7239 ft 270 kts
2026-04-24 16:12 12.74293 123.61593 6639 ft 266 kts
2026-04-24 16:13 12.76160 123.61518 6341 ft 265 kts 360°
2026-04-24 16:13 12.79842 123.61087 5752 ft 263 kts 354°
2026-04-24 16:14 12.83469 123.60537 5174 ft 260 kts 354°
2026-04-24 16:14 12.85257 123.60269 4888 ft 258 kts 353°
2026-04-24 16:14 12.88802 123.59734 4358 ft 254 kts 351°
2026-04-24 16:15 12.89937 123.59390 4169 ft 255 kts 337°
2026-04-24 16:15 12.93169 123.56767 3522 ft 253 kts 317°
2026-04-24 16:16 12.95709 123.54310 3024 ft 244 kts 321°
2026-04-24 16:16 12.97159 123.53559 2961 ft 227 kts 356°
2026-04-24 16:17 13.00615 123.55933 2884 ft 197 kts 49°
2026-04-24 16:17 13.02352 123.57911 2621 ft 174 kts 47°
2026-04-24 16:18 13.03876 123.59582 2285 ft 146 kts 46°
2026-04-24 16:18 13.05212 123.61049 1911 ft 138 kts 47°
2026-04-24 16:18 13.05866 123.61769 1732 ft 138 kts 46°
2026-04-24 16:19 13.07182 123.63219 1357 ft 138 kts 46°
2026-04-24 16:19 13.07836 123.63940 1175 ft 139 kts 46°
2026-04-24 16:20 13.09163 123.65424 751 ft 142 kts 49°
2026-04-24 16:20 13.10492 123.66918 394 ft 142 kts 45°
2026-04-24 16:20 13.11149 123.67636 328 ft 125 kts 46°
2026-04-24 16:21 13.11636 123.68160 328 ft 7 kts 22°
2026-04-24 16:21 13.11638 123.68174 327 ft 4 kts 178°
2026-04-24 16:21 13.11612 123.68149 328 ft 6 kts 235°
2026-04-24 16:22 13.11582 123.68112 327 ft 7 kts 227°
2026-04-24 16:22 13.11509 123.68033 327 ft 7 kts 216°
2026-04-24 16:22 13.11464 123.68035 327 ft 7 kts 143°
2026-04-24 16:23 13.11426 123.68070 327 ft 7 kts 137°
2026-04-24 16:23 13.11386 123.68102 327 ft 5 kts 162°
2026-04-24 16:23 13.11351 123.68091 327 ft 4 kts 220°
2026-04-24 16:24 13.11317 123.68099 327 ft 3 kts 136°
2026-04-24 16:24 13.11300 123.68115 327 ft 3 kts 137°
2026-04-24 16:24 13.11284 123.68131 327 ft 2 kts 137°
2026-04-24 16:24 13.11277 123.68137 327 ft 0 kts 137°